{"data":{"norad_id":35935,"epoch":"2026-09-20T04:37:06.163680Z","epoch_age_seconds":40884,"freshness":"FRESH","line1":"1 35935U 09051E   26263.19243245  .00000456  00000+0  10381-3 0  9999","line2":"2 35935  98.3947 171.2198 0006546 311.8089  48.2551 14.60556516902608","mean_motion":14.60556516,"eccentricity":0.0006546,"inclination_deg":98.3947,"raan_deg":171.2198,"arg_perigee_deg":311.8089,"mean_anomaly_deg":48.2551,"bstar":0.00010381,"rev_number":90260,"period_min":98.592555935028,"perigee_km":686.74991536195,"apogee_km":696.00532390197,"semimajor_km":7069.514619632,"source":"CELESTRAK","updated_at":"2026-09-20T09:00:48.019934Z"}}